Weather History for Middleton, WI

Change the Weather History Date:

Wednesday, August 28, 2013

  Actual Average (KMSN) Record (KMSN)
Temperature  
Mean Temperature 76 °F 68 °F  
Max Temperature 84 °F 78 °F 95 °F (1955)
Min Temperature 66 °F 57 °F 38 °F (1968)
Degree Days  
Heating Degree Days 0 1  
Month to date heating degree days 25  
Since 1 June heating degree days 95  
Since 1 July heating degree days 35  
Cooling Degree Days 10 4  
Month to date cooling degree days 147  
Year to date cooling degree days 503  
Since 1 June cooling degree days 473  
Growing Degree Days 26 (Base 50)    
Moisture  
Dew Point 70 °F    
Average Humidity 82    
Maximum Humidity 95    
Minimum Humidity 57    
Precipitation  
Precipitation 0.00 in 0.13 in 3.00 in (1869)
Month to date precipitation 3.87  
Year to date precipitation 24.42  
Snow  
Snow 0.00 in 0.00 in 0.00 in ()
Month to date snowfall 0.0  
Since 1 June snowfall 0.0  
Since 1 July snowfall 0.0  
Snow Depth -    
Sea Level Pressure  
Sea Level Pressure 29.99 in    
Wind  
Wind Speed 4 mph (ENE)    
Max Wind Speed 10 mph    
Max Gust Speed -    
Visibility 8 miles    
Events      
T = Trace of Precipitation, MM = Missing Value Source: NWS Daily Summary

Daily Weather History Graph

Daily Weather History Graph

Search for Another Location

Airport:

Trip Planner

Search our weather history database for the weather conditions in past years. The results will help you decide how hot, cold, wet, or windy it might be!

Date:

Astronomy

Aug. 28, 2013 Rise Set
Actual Time 6:18 AM CDT 7:39 PM CDT
Civil Twilight 5:48 AM CDT 8:08 PM CDT
Nautical Twilight 5:13 AM CDT 8:44 PM CDT
Astronomical Twilight 4:35 AM CDT 9:21 PM CDT
Moon No Moon Rise 2:21 PM CDT (8/28)
Length of Visible Light 14h 20m
Length of Day
13h 21m
Waning Gibbous, 47% of the Moon is Illuminated
Aug 28
Waning Gibbous
Sep 5
New
Sep 12
First Quarter
Sep 19
Full
Sep 26
Last Quarter

Hourly Weather History & Observations

Time (CDT) Temp. Heat Index Dew Point Humidity Pressure Visibility Wind Dir Wind Speed Gust Speed Precip Events Conditions
12:15 AM 75.0 °F - 72.9 °F 93% 29.87 in 10.0 mi Calm Calm - N/A   Clear
12:35 AM 77.0 °F - 74.5 °F 92% 29.87 in 10.0 mi WNW 3.5 mph - N/A   Clear
12:55 AM 76.1 °F - 73.4 °F 91% 29.87 in 10.0 mi Calm Calm - N/A   Clear
1:15 AM 76.5 °F - 73.4 °F 90% 29.87 in 10.0 mi Calm Calm - N/A   Clear
1:35 AM 75.2 °F - 72.7 °F 92% 29.87 in 10.0 mi Calm Calm - N/A   Clear
1:55 AM 75.7 °F - 73.2 °F 92% 29.87 in 10.0 mi Calm Calm - N/A   Clear
2:15 AM 74.3 °F - 72.1 °F 93% 29.87 in 7.0 mi Calm Calm - N/A   Clear
2:35 AM 74.1 °F - 72.3 °F 94% 29.87 in 10.0 mi Calm Calm - N/A   Clear
2:55 AM 74.8 °F - 73.2 °F 95% 29.87 in 7.0 mi Calm Calm - N/A   Clear
3:15 AM 75.2 °F - 73.6 °F 95% 29.88 in 7.0 mi NE 5.8 mph - N/A   Clear
3:35 AM 75.0 °F - 73.0 °F 94% 29.89 in 10.0 mi Calm Calm - N/A   Clear
3:55 AM 74.7 °F - 72.7 °F 94% 29.90 in 10.0 mi NE 5.8 mph - N/A   Scattered Clouds
4:15 AM 74.8 °F - 72.5 °F 92% 29.91 in 10.0 mi ENE 5.8 mph - N/A   Overcast
4:35 AM 74.7 °F - 72.7 °F 94% 29.91 in 7.0 mi ENE 8.1 mph - N/A   Overcast
4:55 AM 74.8 °F - 72.9 °F 94% 29.92 in 5.0 mi ENE 8.1 mph - N/A   Overcast
5:15 AM 74.8 °F - 72.9 °F 94% 29.93 in 5.0 mi NE 5.8 mph - N/A   Overcast
5:35 AM 74.8 °F - 72.9 °F 94% 29.93 in 4.0 mi ENE 4.6 mph - N/A   Overcast
5:55 AM 74.7 °F - 72.7 °F 94% 29.94 in 5.0 mi ENE 5.8 mph - N/A   Overcast
6:15 AM 74.5 °F - 72.5 °F 94% 29.95 in 5.0 mi ENE 5.8 mph - N/A   Overcast
6:35 AM 74.3 °F - 72.5 °F 94% 29.97 in 1.2 mi ENE 10.4 mph - N/A   Overcast
6:55 AM 73.8 °F - 72.1 °F 95% 29.97 in 3.0 mi NE 8.1 mph - N/A   Overcast
7:15 AM 73.4 °F - 71.6 °F 94% 29.98 in 2.5 mi NE 9.2 mph - N/A   Overcast
7:35 AM 72.9 °F - 71.2 °F 95% 29.99 in 2.0 mi NE 9.2 mph - N/A   Overcast
7:55 AM 72.9 °F - 71.2 °F 95% 29.99 in 2.5 mi NE 6.9 mph - N/A   Overcast
8:15 AM 73.0 °F - 71.4 °F 95% 29.99 in 3.0 mi NE 6.9 mph - N/A   Overcast
8:35 AM 73.4 °F - 71.2 °F 93% 30.00 in 4.0 mi ENE 9.2 mph - N/A   Overcast
8:55 AM 73.4 °F - 70.7 °F 91% 30.00 in 7.0 mi NE 4.6 mph - N/A   Overcast
9:15 AM 73.6 °F - 71.1 °F 92% 30.00 in 7.0 mi NE 6.9 mph - N/A   Overcast
9:35 AM 73.4 °F - 70.7 °F 91% 30.01 in 7.0 mi NE 5.8 mph - N/A   Overcast
9:55 AM 74.3 °F - 70.7 °F 88% 30.01 in 7.0 mi NE 4.6 mph - N/A   Overcast
10:15 AM 75.2 °F - 70.3 °F 85% 30.02 in 10.0 mi NE 8.1 mph - N/A   Overcast
10:35 AM 75.7 °F - 70.2 °F 83% 30.02 in 10.0 mi NE 4.6 mph - N/A   Overcast
10:55 AM 76.5 °F - 69.8 °F 80% 30.03 in 10.0 mi ENE 5.8 mph - N/A   Overcast
11:15 AM 76.6 °F - 70.2 °F 80% 30.03 in 10.0 mi NE 6.9 mph - N/A   Overcast
11:35 AM 77.7 °F - 69.4 °F 76% 30.03 in 10.0 mi NE 4.6 mph - N/A   Overcast
11:55 AM 78.1 °F - 69.6 °F 75% 30.03 in 10.0 mi NE 4.6 mph - N/A   Overcast
12:15 PM 77.9 °F - 68.7 °F 73% 30.03 in 10.0 mi NE 6.9 mph - N/A   Overcast
12:35 PM 78.4 °F - 68.7 °F 72% 30.03 in 10.0 mi NE 6.9 mph - N/A   Overcast
12:55 PM 78.8 °F - 68.2 °F 70% 30.02 in 10.0 mi East 5.8 mph - N/A   Overcast
1:15 PM 81.5 °F 84.4 °F 68.4 °F 64% 30.03 in 10.0 mi ENE 6.9 mph - N/A   Overcast
1:35 PM 82.2 °F 85.1 °F 67.8 °F 62% 30.03 in 10.0 mi ENE 5.8 mph - N/A   Mostly Cloudy
1:55 PM 82.2 °F 84.9 °F 67.5 °F 61% 30.03 in 10.0 mi East 3.5 mph - N/A   Scattered Clouds
2:15 PM 82.0 °F 84.9 °F 68.0 °F 62% 30.02 in 10.0 mi NE 6.9 mph - N/A   Mostly Cloudy
2:35 PM 83.3 °F 86.6 °F 68.5 °F 61% 30.02 in 10.0 mi East 6.9 mph - N/A   Mostly Cloudy
2:55 PM 83.3 °F 86.4 °F 68.0 °F 60% 30.02 in 10.0 mi ENE 4.6 mph - N/A   Mostly Cloudy
3:15 PM 82.2 °F 84.9 °F 67.5 °F 61% 30.02 in 10.0 mi NE 8.1 mph - N/A   Overcast
3:35 PM 83.7 °F 86.5 °F 67.6 °F 58% 30.02 in 10.0 mi ENE 6.9 mph - N/A   Scattered Clouds
3:55 PM 83.7 °F 86.5 °F 67.6 °F 58% 30.02 in 10.0 mi East 8.1 mph - N/A   Scattered Clouds
4:15 PM 83.7 °F 86.5 °F 67.3 °F 58% 30.02 in 10.0 mi ENE 3.5 mph - N/A   Mostly Cloudy
4:35 PM 83.3 °F 86.2 °F 67.6 °F 59% 30.02 in 10.0 mi East 5.8 mph - N/A   Scattered Clouds
4:55 PM 83.3 °F 85.9 °F 67.3 °F 58% 30.03 in 10.0 mi ENE 4.6 mph - N/A   Scattered Clouds
5:15 PM 83.3 °F 85.7 °F 66.7 °F 57% 30.02 in 10.0 mi Calm Calm - N/A   Scattered Clouds
5:35 PM 83.5 °F 86.2 °F 67.1 °F 58% 30.03 in 10.0 mi East 6.9 mph - N/A   Scattered Clouds
5:55 PM 82.6 °F 85.3 °F 67.6 °F 60% 30.03 in 10.0 mi East 9.2 mph - N/A   Mostly Cloudy
6:15 PM 82.0 °F 84.9 °F 67.6 °F 62% 30.03 in 10.0 mi East 4.6 mph - N/A   Scattered Clouds
6:35 PM 81.1 °F 84.2 °F 68.7 °F 66% 30.03 in 10.0 mi ENE 3.5 mph - N/A   Clear
6:55 PM 80.4 °F 83.1 °F 68.2 °F 66% 30.03 in 10.0 mi Calm Calm - N/A   Clear
7:15 PM 78.4 °F - 69.1 °F 73% 30.03 in 10.0 mi East 4.6 mph - N/A   Clear
7:35 PM 76.3 °F - 68.9 °F 78% 30.04 in 10.0 mi Calm Calm - N/A   Clear
7:55 PM 73.8 °F - 68.7 °F 84% 30.04 in 10.0 mi ENE 4.6 mph - N/A   Clear
8:15 PM 74.5 °F - 68.5 °F 82% 30.05 in 10.0 mi ENE 3.5 mph - N/A   Clear
8:35 PM 73.2 °F - 68.5 °F 85% 30.05 in 10.0 mi Calm Calm - N/A   Clear
8:55 PM 71.4 °F - 68.5 °F 91% 30.06 in 10.0 mi Calm Calm - N/A   Clear
9:15 PM 71.1 °F - 68.9 °F 93% 30.06 in 10.0 mi Calm Calm - N/A   Clear
9:35 PM 70.0 °F - 68.0 °F 93% 30.07 in 10.0 mi Calm Calm - N/A   Clear
9:55 PM 70.0 °F - 68.4 °F 95% 30.07 in 10.0 mi Calm Calm - N/A   Mostly Cloudy
10:15 PM 70.2 °F - 68.4 °F 94% 30.07 in 7.0 mi Calm Calm - N/A   Mostly Cloudy
10:35 PM 70.2 °F - 68.4 °F 94% 30.06 in 10.0 mi Calm Calm - N/A   Scattered Clouds
10:55 PM 71.2 °F - 68.0 °F 89% 30.06 in 10.0 mi Calm Calm - N/A   Clear
11:15 PM 69.4 °F - 67.5 °F 93% 30.06 in 10.0 mi Calm Calm - N/A   Clear
11:35 PM 68.0 °F - 66.0 °F 93% 30.07 in 7.0 mi Calm Calm - N/A   Clear
11:55 PM 66.9 °F - 65.3 °F 95% 30.07 in 4.0 mi Calm Calm - N/A   Clear